Time,TemperatureF,DewpointF,PressureIn,WindDirection,WindDirectionDegrees,WindSpeedMPH,WindSpeedGustMPH,Humidity,HourlyPrecipIn,Conditions,Clouds,dailyrainin,SoftwareType,DateUTC
2013-02-04 00:00:00,16.0,8.6,29.73,West,270,1.1,4.5,72,0.00,,,0.00,WUHU216HW,2013-02-04 05:00:00,
2013-02-04 00:02:00,16.2,8.7,29.73,West,270,1.3,4.5,72,0.00,,,0.00,WUHU216HW,2013-02-04 05:02:00,
2013-02-04 00:07:00,16.2,8.7,29.73,WSW,248,3.6,3.6,72,0.00,,,0.00,WUHU216HW,2013-02-04 05:07:00,
2013-02-04 00:12:00,16.0,8.6,29.73,West,270,3.8,4.3,72,0.00,,,0.00,WUHU216HW,2013-02-04 05:12:00,
2013-02-04 00:17:00,16.0,8.8,29.73,WSW,248,1.8,4.3,73,0.00,,,0.00,WUHU216HW,2013-02-04 05:17:00,
2013-02-04 00:22:00,16.0,8.8,29.73,WNW,293,2.9,3.8,73,0.00,,,0.00,WUHU216HW,2013-02-04 05:22:00,
2013-02-04 00:27:00,16.0,8.8,29.74,WSW,248,1.8,3.8,73,0.00,,,0.00,WUHU216HW,2013-02-04 05:27:00,
2013-02-04 00:32:00,15.8,8.6,29.73,WSW,248,1.3,3.8,73,0.00,,,0.00,WUHU216HW,2013-02-04 05:32:00,
2013-02-04 00:37:00,15.8,8.6,29.74,WSW,248,3.4,4.0,73,0.00,,,0.00,WUHU216HW,2013-02-04 05:37:00,
2013-02-04 00:42:00,15.8,8.6,29.74,SW,225,2.7,4.3,73,0.00,,,0.00,WUHU216HW,2013-02-04 05:42:00,
2013-02-04 00:47:00,15.8,9.0,29.74,West,270,1.6,4.3,74,0.00,,,0.00,WUHU216HW,2013-02-04 05:47:00,
2013-02-04 00:52:00,15.8,9.0,29.74,West,270,4.7,4.7,74,0.00,,,0.00,WUHU216HW,2013-02-04 05:52:00,
2013-02-04 00:57:00,15.8,9.0,29.74,WSW,248,4.0,4.7,74,0.00,,,0.00,WUHU216HW,2013-02-04 05:57:00,
2013-02-04 01:02:00,15.8,9.0,29.74,WSW,248,3.1,4.7,74,0.00,,,0.00,WUHU216HW,2013-02-04 06:02:00,
2013-02-04 01:07:00,15.8,9.0,29.74,WSW,248,1.3,4.3,74,0.00,,,0.00,WUHU216HW,2013-02-04 06:07:00,
2013-02-04 01:12:00,15.8,9.0,29.74,SW,225,1.3,4.3,74,0.00,,,0.00,WUHU216HW,2013-02-04 06:12:00,
2013-02-04 01:17:00,15.8,9.0,29.74,WSW,248,2.7,4.3,74,0.00,,,0.00,WUHU216HW,2013-02-04 06:17:00,
2013-02-04 01:22:00,15.8,9.0,29.75,WSW,248,0.7,3.1,74,0.00,,,0.00,WUHU216HW,2013-02-04 06:22:00,
2013-02-04 01:27:00,15.8,9.3,29.74,WSW,248,0.7,3.6,75,0.00,,,0.00,WUHU216HW,2013-02-04 06:27:00,
2013-02-04 01:32:00,15.8,9.3,29.74,WSW,248,2.2,3.6,75,0.00,,,0.00,WUHU216HW,2013-02-04 06:32:00,
2013-02-04 01:37:00,15.8,9.3,29.75,WSW,248,3.1,3.4,75,0.00,,,0.00,WUHU216HW,2013-02-04 06:37:00,
2013-02-04 01:42:00,15.8,9.5,29.74,WSW,248,0.7,3.4,76,0.00,,,0.00,WUHU216HW,2013-02-04 06:42:00,
2013-02-04 01:47:00,15.8,9.5,29.74,WSW,248,2.7,2.9,76,0.00,,,0.00,WUHU216HW,2013-02-04 06:47:00,
2013-02-04 01:52:00,15.8,9.5,29.74,West,270,1.8,3.8,76,0.00,,,0.00,WUHU216HW,2013-02-04 06:52:00,
2013-02-04 01:57:00,15.7,9.4,29.74,WSW,248,1.6,3.8,76,0.00,,,0.00,WUHU216HW,2013-02-04 06:57:00,
2013-02-04 02:02:00,15.7,9.7,29.74,WSW,248,2.5,2.5,77,0.00,,,0.00,WUHU216HW,2013-02-04 07:02:00,
2013-02-04 02:07:00,15.5,9.3,29.74,WSW,248,1.8,2.5,76,0.00,,,0.00,WUHU216HW,2013-02-04 07:07:00,
2013-02-04 02:12:00,15.7,9.7,29.74,SW,225,2.2,3.4,77,0.00,,,0.00,WUHU216HW,2013-02-04 07:12:00,
2013-02-04 02:17:00,15.7,9.7,29.75,West,270,1.8,3.4,77,0.00,,,0.00,WUHU216HW,2013-02-04 07:17:00,
2013-02-04 02:22:00,15.7,10.0,29.74,SSW,203,1.1,2.5,78,0.00,,,0.00,WUHU216HW,2013-02-04 07:22:00,
2013-02-04 02:27:00,15.7,10.0,29.74,SW,225,2.5,2.5,78,0.00,,,0.00,WUHU216HW,2013-02-04 07:27:00,
2013-02-04 02:32:00,15.7,10.0,29.75,SW,225,0.9,2.5,78,0.00,,,0.00,WUHU216HW,2013-02-04 07:32:00,
2013-02-04 02:37:00,15.8,10.2,29.74,SSW,203,1.8,2.5,78,0.00,,,0.00,WUHU216HW,2013-02-04 07:37:00,
2013-02-04 02:42:00,15.8,10.2,29.74,SW,225,1.6,2.5,78,0.00,,,0.00,WUHU216HW,2013-02-04 07:42:00,
2013-02-04 02:47:00,15.8,10.2,29.74,West,270,1.1,2.5,78,0.00,,,0.00,WUHU216HW,2013-02-04 07:47:00,
2013-02-04 02:52:00,15.8,10.2,29.74,SW,225,1.8,1.8,78,0.00,,,0.00,WUHU216HW,2013-02-04 07:52:00,
2013-02-04 02:57:00,15.8,10.5,29.74,SSW,203,0.7,2.0,79,0.00,,,0.00,WUHU216HW,2013-02-04 07:57:00,
2013-02-04 03:02:00,15.8,10.5,29.74,WSW,248,1.1,3.4,79,0.00,,,0.00,WUHU216HW,2013-02-04 08:02:00,
2013-02-04 03:07:00,15.8,10.5,29.75,SW,225,0.4,3.4,79,0.00,,,0.00,WUHU216HW,2013-02-04 08:07:00,
2013-02-04 03:12:00,15.8,10.5,29.75,SW,225,0.2,2.9,79,0.00,,,0.00,WUHU216HW,2013-02-04 08:12:00,
2013-02-04 03:17:00,15.8,10.8,29.75,WSW,248,2.2,2.9,80,0.00,,,0.00,WUHU216HW,2013-02-04 08:17:00,
2013-02-04 03:22:00,16.0,11.0,29.75,WSW,248,3.1,3.8,80,0.00,,,0.00,WUHU216HW,2013-02-04 08:22:00,
2013-02-04 03:27:00,16.0,10.6,29.75,SW,225,1.8,3.8,79,0.00,,,0.00,WUHU216HW,2013-02-04 08:27:00,
2013-02-04 03:32:00,16.0,10.6,29.74,SW,225,1.8,3.4,79,0.00,,,0.00,WUHU216HW,2013-02-04 08:32:00,
2013-02-04 03:37:00,16.0,10.6,29.74,SSW,203,1.8,3.4,79,0.00,,,0.00,WUHU216HW,2013-02-04 08:37:00,
2013-02-04 03:42:00,16.0,10.6,29.75,WSW,248,0.7,2.2,79,0.00,,,0.00,WUHU216HW,2013-02-04 08:42:00,
2013-02-04 03:47:00,16.2,10.8,29.74,WSW,248,1.3,3.4,79,0.00,,,0.00,WUHU216HW,2013-02-04 08:47:00,
2013-02-04 03:52:00,16.2,10.8,29.75,WSW,248,2.2,4.5,79,0.00,,,0.00,WUHU216HW,2013-02-04 08:52:00,
2013-02-04 03:57:00,16.2,10.8,29.74,SW,225,1.8,4.5,79,0.00,,,0.00,WUHU216HW,2013-02-04 08:57:00,
2013-02-04 04:02:00,16.2,10.8,29.74,South,180,1.1,3.4,79,0.00,,,0.00,WUHU216HW,2013-02-04 09:02:00,
2013-02-04 04:07:00,16.2,10.8,29.74,WSW,248,3.1,4.5,79,0.00,,,0.00,WUHU216HW,2013-02-04 09:07:00,
2013-02-04 04:12:00,16.2,10.8,29.74,WSW,248,1.8,4.5,79,0.00,,,0.00,WUHU216HW,2013-02-04 09:12:00,
2013-02-04 04:17:00,16.2,10.8,29.74,West,270,2.0,3.1,79,0.00,,,0.00,WUHU216HW,2013-02-04 09:17:00,
2013-02-04 04:22:00,16.4,11.0,29.74,WSW,248,2.0,2.5,79,0.00,,,0.00,WUHU216HW,2013-02-04 09:22:00,
2013-02-04 04:27:00,16.4,11.3,29.74,West,270,1.6,2.2,80,0.00,,,0.00,WUHU216HW,2013-02-04 09:27:00,
2013-02-04 04:32:00,16.4,11.3,29.74,West,270,1.1,2.0,80,0.00,,,0.00,WUHU216HW,2013-02-04 09:32:00,
2013-02-04 04:37:00,16.4,11.3,29.74,West,270,1.1,1.6,80,0.00,,,0.00,WUHU216HW,2013-02-04 09:37:00,
2013-02-04 04:42:00,16.4,11.0,29.73,SW,225,1.1,2.5,79,0.00,,,0.00,WUHU216HW,2013-02-04 09:42:00,
2013-02-04 04:47:00,16.4,11.0,29.73,West,270,0.4,2.5,79,0.00,,,0.00,WUHU216HW,2013-02-04 09:47:00,
2013-02-04 04:52:00,16.4,11.0,29.74,WSW,248,1.1,1.8,79,0.00,,,0.00,WUHU216HW,2013-02-04 09:52:00,
2013-02-04 04:57:00,16.4,11.0,29.73,WSW,248,0.9,1.8,79,0.00,,,0.00,WUHU216HW,2013-02-04 09:57:00,
2013-02-04 05:02:00,16.4,11.0,29.73,WSW,248,0.4,1.3,79,0.00,,,0.00,WUHU216HW,2013-02-04 10:02:00,
2013-02-04 05:07:00,16.4,11.0,29.73,South,180,1.1,1.1,79,0.00,,,0.00,WUHU216HW,2013-02-04 10:07:00,
2013-02-04 05:12:00,16.4,11.0,29.74,SW,225,1.1,1.1,79,0.00,,,0.00,WUHU216HW,2013-02-04 10:12:00,
2013-02-04 05:17:00,16.4,11.0,29.74,WSW,248,0.4,1.8,79,0.00,,,0.00,WUHU216HW,2013-02-04 10:17:00,
2013-02-04 05:22:00,16.4,11.0,29.73,SW,225,1.3,1.8,79,0.00,,,0.00,WUHU216HW,2013-02-04 10:22:00,
2013-02-04 05:27:00,16.4,11.0,29.73,SW,225,0.9,1.3,79,0.00,,,0.00,WUHU216HW,2013-02-04 10:27:00,
2013-02-04 05:32:00,16.4,11.0,29.73,WSW,248,0.0,1.3,79,0.00,,,0.00,WUHU216HW,2013-02-04 10:32:00,
2013-02-04 05:37:00,16.4,11.0,29.73,West,270,0.2,1.1,79,0.00,,,0.00,WUHU216HW,2013-02-04 10:37:00,
2013-02-04 05:42:00,16.4,11.0,29.73,WSW,248,0.2,0.7,79,0.00,,,0.00,WUHU216HW,2013-02-04 10:42:00,
2013-02-04 05:47:00,16.2,10.8,29.73,WSW,248,0.0,0.4,79,0.00,,,0.00,WUHU216HW,2013-02-04 10:47:00,
2013-02-04 05:52:00,16.2,10.8,29.72,SW,225,0.4,0.7,79,0.00,,,0.00,WUHU216HW,2013-02-04 10:52:00,
2013-02-04 05:57:00,16.2,11.2,29.72,WSW,248,0.4,0.9,80,0.00,,,0.00,WUHU216HW,2013-02-04 10:57:00,
2013-02-04 06:02:00,16.4,11.3,29.72,WSW,248,0.4,1.1,80,0.00,,,0.00,WUHU216HW,2013-02-04 11:02:00,
2013-02-04 06:07:00,16.4,11.3,29.72,South,180,0.2,1.1,80,0.00,,,0.00,WUHU216HW,2013-02-04 11:07:00,
2013-02-04 06:12:00,16.4,11.3,29.72,South,180,0.0,0.9,80,0.00,,,0.00,WUHU216HW,2013-02-04 11:12:00,
2013-02-04 06:17:00,16.4,11.0,29.72,WSW,248,1.1,1.1,79,0.00,,,0.00,WUHU216HW,2013-02-04 11:17:00,
2013-02-04 06:22:00,16.4,11.0,29.72,SW,225,0.0,1.1,79,0.00,,,0.00,WUHU216HW,2013-02-04 11:22:00,
2013-02-04 06:27:00,16.4,11.0,29.72,SW,225,0.4,1.1,79,0.00,,,0.00,WUHU216HW,2013-02-04 11:27:00,
2013-02-04 06:32:00,16.6,11.2,29.72,SSE,158,0.0,0.7,79,0.00,,,0.00,WUHU216HW,2013-02-04 11:32:00,
2013-02-04 06:37:00,16.4,11.0,29.72,SSW,203,0.2,0.9,79,0.00,,,0.00,WUHU216HW,2013-02-04 11:37:00,
2013-02-04 06:42:00,16.4,11.0,29.72,SSW,203,0.0,0.9,79,0.00,,,0.00,WUHU216HW,2013-02-04 11:42:00,
2013-02-04 06:47:00,16.6,11.2,29.72,SSW,203,0.0,0.4,79,0.00,,,0.00,WUHU216HW,2013-02-04 11:47:00,
2013-02-04 06:52:00,16.6,11.2,29.72,SSW,203,0.0,0.4,79,0.00,,,0.00,WUHU216HW,2013-02-04 11:52:00,
2013-02-04 06:57:00,16.6,11.2,29.72,SSW,203,0.4,1.8,79,0.00,,,0.00,WUHU216HW,2013-02-04 11:57:00,
2013-02-04 07:02:00,16.6,11.2,29.72,South,180,0.4,1.8,79,0.00,,,0.00,WUHU216HW,2013-02-04 12:02:00,
2013-02-04 07:07:00,16.6,11.2,29.72,SSW,203,1.6,1.6,79,0.00,,,0.00,WUHU216HW,2013-02-04 12:07:00,
2013-02-04 07:12:00,16.6,11.2,29.72,SSW,203,0.0,1.6,79,0.00,,,0.00,WUHU216HW,2013-02-04 12:12:00,
2013-02-04 07:17:00,16.4,11.3,29.72,SW,225,0.2,1.6,80,0.00,,,0.00,WUHU216HW,2013-02-04 12:17:00,
2013-02-04 07:22:00,16.6,11.4,29.72,SSW,203,0.0,1.3,80,0.00,,,0.00,WUHU216HW,2013-02-04 12:22:00,
2013-02-04 07:27:00,16.6,11.4,29.71,SSW,203,0.0,1.3,80,0.00,,,0.00,WUHU216HW,2013-02-04 12:27:00,
2013-02-04 07:32:00,16.6,11.4,29.71,SSE,158,0.7,0.7,80,0.00,,,0.00,WUHU216HW,2013-02-04 12:32:00,
2013-02-04 07:37:00,16.6,11.4,29.71,SE,135,0.0,0.7,80,0.00,,,0.00,WUHU216HW,2013-02-04 12:37:00,
2013-02-04 07:42:00,16.4,11.3,29.71,SSE,158,0.4,0.4,80,0.00,,,0.00,WUHU216HW,2013-02-04 12:42:00,
2013-02-04 07:47:00,16.6,11.4,29.71,SSE,158,0.0,0.4,80,0.00,,,0.00,WUHU216HW,2013-02-04 12:47:00,
2013-02-04 07:52:00,16.6,11.4,29.72,SSE,158,0.0,0.4,80,0.00,,,0.00,WUHU216HW,2013-02-04 12:52:00,
2013-02-04 07:57:00,16.6,11.4,29.72,SE,135,0.0,0.4,80,0.00,,,0.00,WUHU216HW,2013-02-04 12:57:00,
2013-02-04 08:02:00,16.6,11.4,29.71,SSE,158,0.9,0.9,80,0.00,,,0.00,WUHU216HW,2013-02-04 13:02:00,
2013-02-04 08:07:00,16.7,11.6,29.71,SSE,158,0.4,0.9,80,0.00,,,0.00,WUHU216HW,2013-02-04 13:07:00,
2013-02-04 08:12:00,16.7,11.6,29.71,SSE,158,0.4,1.3,80,0.00,,,0.00,WUHU216HW,2013-02-04 13:12:00,
2013-02-04 08:17:00,16.7,11.6,29.71,SE,135,0.2,1.6,80,0.00,,,0.00,WUHU216HW,2013-02-04 13:17:00,
2013-02-04 08:22:00,16.9,11.8,29.72,SSE,158,0.2,1.6,80,0.00,,,0.00,WUHU216HW,2013-02-04 13:22:00,
2013-02-04 08:27:00,17.1,12.0,29.72,SSE,158,0.2,1.3,80,0.00,,,0.00,WUHU216HW,2013-02-04 13:27:00,
2013-02-04 08:32:00,17.1,12.0,29.72,SSE,158,0.0,0.4,80,0.00,,,0.00,WUHU216HW,2013-02-04 13:32:00,
2013-02-04 08:37:00,17.3,12.1,29.72,ESE,113,0.0,0.4,80,0.00,,,0.00,WUHU216HW,2013-02-04 13:37:00,
2013-02-04 08:42:00,17.5,12.2,29.72,SE,135,0.0,0.4,80,0.00,,,0.00,WUHU216HW,2013-02-04 13:42:00,
2013-02-04 08:47:00,17.6,12.4,29.73,SE,135,0.0,0.9,80,0.00,,,0.00,WUHU216HW,2013-02-04 13:47:00,
2013-02-04 08:52:00,17.6,12.4,29.73,SE,135,0.0,0.9,80,0.00,,,0.00,WUHU216HW,2013-02-04 13:52:00,
2013-02-04 08:57:00,17.8,12.6,29.72,SE,135,0.4,0.7,80,0.00,,,0.00,WUHU216HW,2013-02-04 13:57:00,
2013-02-04 09:02:00,17.8,12.6,29.73,South,180,0.4,0.7,80,0.00,,,0.00,WUHU216HW,2013-02-04 14:02:00,
2013-02-04 09:07:00,18.0,12.8,29.73,South,180,0.0,0.4,80,0.00,,,0.00,WUHU216HW,2013-02-04 14:07:00,
2013-02-04 09:12:00,18.0,12.8,29.73,SSE,158,0.2,0.4,80,0.00,,,0.00,WUHU216HW,2013-02-04 14:12:00,
2013-02-04 09:17:00,18.0,12.8,29.72,SE,135,0.0,0.2,80,0.00,,,0.00,WUHU216HW,2013-02-04 14:17:00,
2013-02-04 09:22:00,17.8,12.6,29.73,SE,135,0.0,0.2,80,0.00,,,0.00,WUHU216HW,2013-02-04 14:22:00,
2013-02-04 09:27:00,18.0,12.8,29.72,ESE,113,0.0,0.2,80,0.00,,,0.00,WUHU216HW,2013-02-04 14:27:00,
2013-02-04 09:32:00,18.0,12.8,29.72,SSE,158,0.4,0.4,80,0.00,,,0.00,WUHU216HW,2013-02-04 14:32:00,
2013-02-04 09:37:00,18.4,13.4,29.72,ESE,113,0.0,1.1,81,0.00,,,0.00,WUHU216HW,2013-02-04 14:37:00,
2013-02-04 09:42:00,18.5,13.6,29.72,ESE,113,0.0,1.1,81,0.00,,,0.00,WUHU216HW,2013-02-04 14:42:00,
2013-02-04 09:47:00,18.9,14.0,29.72,ESE,113,0.0,0.4,81,0.00,,,0.00,WUHU216HW,2013-02-04 14:47:00,
2013-02-04 09:52:00,19.1,14.1,29.72,ESE,113,0.0,0.4,81,0.00,,,0.00,WUHU216HW,2013-02-04 14:52:00,
2013-02-04 09:57:00,19.1,14.1,29.72,ESE,113,0.0,0.0,81,0.00,,,0.00,WUHU216HW,2013-02-04 14:57:00,
2013-02-04 10:02:00,19.3,14.0,29.72,East,90,0.0,0.4,80,0.00,,,0.00,WUHU216HW,2013-02-04 15:02:00,
2013-02-04 10:07:00,19.1,13.9,29.72,East,90,0.4,0.7,80,0.00,,,0.00,WUHU216HW,2013-02-04 15:07:00,
2013-02-04 10:12:00,19.1,13.9,29.72,ENE,68,0.7,0.7,80,0.00,,,0.00,WUHU216HW,2013-02-04 15:12:00,
2013-02-04 10:17:00,19.1,13.9,29.72,SE,135,0.2,0.7,80,0.00,,,0.00,WUHU216HW,2013-02-04 15:17:00,
2013-02-04 10:22:00,19.3,14.3,29.72,NNE,23,0.7,1.1,81,0.00,,,0.00,WUHU216HW,2013-02-04 15:22:00,
2013-02-04 10:27:00,19.1,14.1,29.72,ESE,113,1.3,1.3,81,0.00,,,0.00,WUHU216HW,2013-02-04 15:27:00,
2013-02-04 10:32:00,19.3,14.3,29.72,ENE,68,1.1,1.8,81,0.00,,,0.00,WUHU216HW,2013-02-04 15:32:00,
2013-02-04 10:37:00,19.1,14.1,29.72,East,90,0.4,1.8,81,0.00,,,0.00,WUHU216HW,2013-02-04 15:37:00,
2013-02-04 10:42:00,19.1,14.1,29.72,NE,45,2.2,2.2,81,0.00,,,0.00,WUHU216HW,2013-02-04 15:42:00,
2013-02-04 10:47:00,19.1,14.1,29.72,NE,45,1.1,2.2,81,0.00,,,0.00,WUHU216HW,2013-02-04 15:47:00,
2013-02-04 10:52:00,19.1,14.1,29.72,East,90,0.7,2.2,81,0.00,,,0.00,WUHU216HW,2013-02-04 15:52:00,
2013-02-04 10:57:00,19.6,14.7,29.72,East,90,0.0,1.8,81,0.00,,,0.00,WUHU216HW,2013-02-04 15:57:00,
2013-02-04 11:02:00,20.0,15.0,29.71,East,90,0.4,1.1,81,0.00,,,0.00,WUHU216HW,2013-02-04 16:02:00,
2013-02-04 11:07:00,20.5,15.6,29.71,SE,135,0.0,1.1,81,0.00,,,0.00,WUHU216HW,2013-02-04 16:07:00,
2013-02-04 11:12:00,20.9,15.9,29.71,SE,135,0.9,1.1,81,0.00,,,0.00,WUHU216HW,2013-02-04 16:12:00,
2013-02-04 11:17:00,21.2,16.0,29.71,SE,135,0.7,0.9,80,0.00,,,0.00,WUHU216HW,2013-02-04 16:17:00,
2013-02-04 11:22:00,21.8,16.6,29.71,SE,135,0.4,1.6,80,0.00,,,0.00,WUHU216HW,2013-02-04 16:22:00,
2013-02-04 11:27:00,22.3,17.1,29.71,SE,135,0.9,1.6,80,0.00,,,0.00,WUHU216HW,2013-02-04 16:27:00,
2013-02-04 11:32:00,22.5,17.0,29.71,SSE,158,0.7,0.9,79,0.00,,,0.00,WUHU216HW,2013-02-04 16:32:00,
2013-02-04 11:37:00,23.0,17.6,29.71,SE,135,0.4,1.1,79,0.00,,,0.00,WUHU216HW,2013-02-04 16:37:00,
2013-02-04 11:42:00,23.0,17.6,29.71,SE,135,0.4,1.1,79,0.00,,,0.00,WUHU216HW,2013-02-04 16:42:00,
2013-02-04 11:47:00,23.6,17.7,29.70,East,90,0.0,1.1,78,0.00,,,0.00,WUHU216HW,2013-02-04 16:47:00,
2013-02-04 11:52:00,23.8,17.9,29.70,SE,135,0.4,1.3,78,0.00,,,0.00,WUHU216HW,2013-02-04 16:52:00,
2013-02-04 11:57:00,23.9,18.4,29.69,SSE,158,0.4,1.8,79,0.00,,,0.00,WUHU216HW,2013-02-04 16:57:00,
2013-02-04 12:02:00,24.3,18.7,29.69,NNE,23,1.3,1.8,79,0.00,,,0.00,WUHU216HW,2013-02-04 17:02:00,
2013-02-04 12:07:00,24.7,19.1,29.69,SE,135,0.2,1.3,79,0.00,,,0.00,WUHU216HW,2013-02-04 17:07:00,
2013-02-04 12:12:00,25.4,19.8,29.69,SE,135,0.4,1.3,79,0.00,,,0.00,WUHU216HW,2013-02-04 17:12:00,
2013-02-04 12:17:00,25.4,19.2,29.68,ESE,113,1.6,1.6,77,0.00,,,0.00,WUHU216HW,2013-02-04 17:17:00,
2013-02-04 12:22:00,25.2,19.0,29.68,ESE,113,0.9,1.6,77,0.00,,,0.00,WUHU216HW,2013-02-04 17:22:00,
2013-02-04 12:27:00,25.2,19.0,29.68,East,90,1.1,1.6,77,0.00,,,0.00,WUHU216HW,2013-02-04 17:27:00,
2013-02-04 12:32:00,25.2,19.0,29.68,SSE,158,0.4,1.1,77,0.00,,,0.00,WUHU216HW,2013-02-04 17:32:00,
2013-02-04 12:37:00,25.2,19.0,29.67,SE,135,0.2,1.8,77,0.00,,,0.00,WUHU216HW,2013-02-04 17:37:00,
2013-02-04 12:42:00,24.7,18.2,29.67,SSE,158,0.9,1.8,76,0.00,,,0.00,WUHU216HW,2013-02-04 17:42:00,
2013-02-04 12:47:00,25.2,19.0,29.67,SE,135,0.9,1.8,77,0.00,,,0.00,WUHU216HW,2013-02-04 17:47:00,
2013-02-04 12:52:00,25.6,19.4,29.67,SE,135,0.4,1.6,77,0.00,,,0.00,WUHU216HW,2013-02-04 17:52:00,
2013-02-04 12:57:00,26.1,19.8,29.67,SE,135,0.2,1.1,77,0.00,,,0.00,WUHU216HW,2013-02-04 17:57:00,
2013-02-04 13:03:00,25.7,18.5,29.66,ESE,113,1.1,1.1,74,0.00,,,0.00,WUHU216HW,2013-02-04 18:03:00,
2013-02-04 13:08:00,25.4,18.6,29.66,SE,135,1.1,1.1,75,0.00,,,0.00,WUHU216HW,2013-02-04 18:08:00,
2013-02-04 13:13:00,26.5,19.9,29.66,East,90,0.7,1.8,76,0.00,,,0.00,WUHU216HW,2013-02-04 18:13:00,
2013-02-04 13:18:00,26.6,19.7,29.66,ESE,113,0.0,1.8,75,0.00,,,0.00,WUHU216HW,2013-02-04 18:18:00,
2013-02-04 13:23:00,26.8,19.9,29.66,SE,135,0.7,1.8,75,0.00,,,0.00,WUHU216HW,2013-02-04 18:23:00,
2013-02-04 13:28:00,25.9,18.1,29.66,East,90,1.1,1.8,72,0.00,,,0.00,WUHU216HW,2013-02-04 18:28:00,
2013-02-04 13:33:00,25.6,18.4,29.65,ENE,68,0.4,1.8,74,0.00,,,0.00,WUHU216HW,2013-02-04 18:33:00,
2013-02-04 13:38:00,25.7,18.8,29.66,ENE,68,0.4,1.6,75,0.00,,,0.00,WUHU216HW,2013-02-04 18:38:00,
2013-02-04 13:43:00,25.9,19.0,29.65,SE,135,1.1,1.6,75,0.00,,,0.00,WUHU216HW,2013-02-04 18:43:00,
2013-02-04 13:48:00,27.0,20.1,29.65,South,180,0.2,1.3,75,0.00,,,0.00,WUHU216HW,2013-02-04 18:48:00,
2013-02-04 13:53:00,28.1,21.4,29.65,SSE,158,2.2,2.5,76,0.00,,,0.00,WUHU216HW,2013-02-04 18:53:00,
2013-02-04 13:58:00,28.6,21.7,29.65,SE,135,0.7,2.5,75,0.00,,,0.00,WUHU216HW,2013-02-04 18:58:00,
2013-02-04 14:03:00,28.6,21.7,29.65,South,180,0.0,2.2,75,0.00,,,0.00,WUHU216HW,2013-02-04 19:03:00,
2013-02-04 14:08:00,27.7,20.8,29.64,ESE,113,1.1,1.1,75,0.00,,,0.00,WUHU216HW,2013-02-04 19:08:00,
2013-02-04 14:13:00,27.9,21.0,29.64,SE,135,1.6,1.8,75,0.00,,,0.00,WUHU216HW,2013-02-04 19:13:00,
2013-02-04 14:18:00,27.7,20.5,29.64,ENE,68,1.1,1.8,74,0.00,,,0.00,WUHU216HW,2013-02-04 19:18:00,
2013-02-04 14:23:00,27.0,19.8,29.64,SSE,158,0.2,1.6,74,0.00,,,0.00,WUHU216HW,2013-02-04 19:23:00,
2013-02-04 14:28:00,27.4,20.2,29.64,SE,135,1.1,1.6,74,0.00,,,0.00,WUHU216HW,2013-02-04 19:28:00,
2013-02-04 14:33:00,27.2,19.6,29.64,ESE,113,0.4,1.6,73,0.00,,,0.00,WUHU216HW,2013-02-04 19:33:00,
2013-02-04 14:38:00,26.6,19.5,29.63,ESE,113,0.4,1.1,74,0.00,,,0.00,WUHU216HW,2013-02-04 19:38:00,
2013-02-04 14:43:00,26.5,19.3,29.63,SE,135,0.0,1.1,74,0.00,,,0.00,WUHU216HW,2013-02-04 19:43:00,
2013-02-04 14:48:00,26.6,19.5,29.63,ESE,113,0.0,1.1,74,0.00,,,0.00,WUHU216HW,2013-02-04 19:48:00,
2013-02-04 14:53:00,26.1,18.9,29.63,NE,45,0.2,1.6,74,0.00,,,0.00,WUHU216HW,2013-02-04 19:53:00,
2013-02-04 14:58:00,25.4,18.2,29.63,ENE,68,1.1,1.6,74,0.00,,,0.00,WUHU216HW,2013-02-04 19:58:00,
2013-02-04 15:03:00,24.7,17.6,29.63,East,90,0.9,2.5,74,0.00,,,0.00,WUHU216HW,2013-02-04 20:03:00,
2013-02-04 15:08:00,24.7,17.8,29.63,NE,45,0.2,2.5,75,0.00,,,0.00,WUHU216HW,2013-02-04 20:08:00,
2013-02-04 15:13:00,24.8,18.0,29.63,ESE,113,0.9,1.3,75,0.00,,,0.00,WUHU216HW,2013-02-04 20:13:00,
2013-02-04 15:18:00,25.2,18.6,29.63,SSE,158,0.0,1.1,76,0.00,,,0.00,WUHU216HW,2013-02-04 20:18:00,
2013-02-04 15:23:00,25.7,19.2,29.63,SE,135,0.4,0.9,76,0.00,,,0.00,WUHU216HW,2013-02-04 20:23:00,
2013-02-04 15:28:00,25.6,18.7,29.63,ENE,68,0.7,0.9,75,0.00,,,0.00,WUHU216HW,2013-02-04 20:28:00,
2013-02-04 15:33:00,25.7,18.8,29.62,East,90,0.0,0.9,75,0.00,,,0.00,WUHU216HW,2013-02-04 20:33:00,
2013-02-04 15:38:00,25.6,18.7,29.63,ENE,68,0.9,1.8,75,0.00,,,0.00,WUHU216HW,2013-02-04 20:38:00,
2013-02-04 15:43:00,25.2,18.4,29.62,SE,135,0.9,1.8,75,0.00,,,0.00,WUHU216HW,2013-02-04 20:43:00,
2013-02-04 15:48:00,25.0,18.5,29.62,SE,135,0.4,1.1,76,0.00,,,0.00,WUHU216HW,2013-02-04 20:48:00,
2013-02-04 15:53:00,25.2,18.6,29.62,ESE,113,0.4,1.1,76,0.00,,,0.00,WUHU216HW,2013-02-04 20:53:00,
2013-02-04 15:58:00,25.4,18.8,29.62,ENE,68,0.9,1.1,76,0.00,,,0.00,WUHU216HW,2013-02-04 20:58:00,
2013-02-04 16:03:00,25.6,19.0,29.62,SE,135,0.0,1.6,76,0.00,,,0.00,WUHU216HW,2013-02-04 21:03:00,
2013-02-04 16:08:00,25.6,19.0,29.62,NNE,23,0.9,1.6,76,0.00,,,0.00,WUHU216HW,2013-02-04 21:08:00,
2013-02-04 16:13:00,25.0,18.5,29.62,ESE,113,0.0,0.9,76,0.00,,,0.00,WUHU216HW,2013-02-04 21:13:00,
2013-02-04 16:18:00,25.0,18.5,29.62,ESE,113,0.4,0.9,76,0.00,,,0.00,WUHU216HW,2013-02-04 21:18:00,
2013-02-04 16:23:00,25.0,18.5,29.62,SE,135,0.0,1.1,76,0.00,,,0.00,WUHU216HW,2013-02-04 21:23:00,
2013-02-04 16:28:00,25.0,18.5,29.62,ESE,113,0.2,1.1,76,0.00,,,0.00,WUHU216HW,2013-02-04 21:28:00,
2013-02-04 16:33:00,25.2,18.6,29.62,SE,135,0.4,1.3,76,0.00,,,0.00,WUHU216HW,2013-02-04 21:33:00,
2013-02-04 16:38:00,25.2,18.6,29.62,SE,135,0.0,1.3,76,0.00,,,0.00,WUHU216HW,2013-02-04 21:38:00,
2013-02-04 16:43:00,25.2,18.6,29.62,SE,135,0.0,0.9,76,0.00,,,0.00,WUHU216HW,2013-02-04 21:43:00,
2013-02-04 16:48:00,24.7,18.2,29.62,East,90,0.0,1.1,76,0.00,,,0.00,WUHU216HW,2013-02-04 21:48:00,
2013-02-04 16:53:00,24.1,17.9,29.62,East,90,0.0,1.1,77,0.00,,,0.00,WUHU216HW,2013-02-04 21:53:00,
2013-02-04 16:58:00,23.9,17.8,29.62,East,90,0.0,0.7,77,0.00,,,0.00,WUHU216HW,2013-02-04 21:58:00,
2013-02-04 17:03:00,23.8,17.7,29.61,East,90,0.4,0.4,77,0.00,,,0.00,WUHU216HW,2013-02-04 22:03:00,
2013-02-04 17:08:00,23.6,17.5,29.61,ESE,113,0.0,0.4,77,0.00,,,0.00,WUHU216HW,2013-02-04 22:08:00,
2013-02-04 17:13:00,23.4,17.3,29.61,East,90,0.0,1.3,77,0.00,,,0.00,WUHU216HW,2013-02-04 22:13:00,
2013-02-04 17:18:00,23.0,16.9,29.61,ENE,68,0.0,1.3,77,0.00,,,0.00,WUHU216HW,2013-02-04 22:18:00,
2013-02-04 17:23:00,22.9,16.8,29.61,ENE,68,0.0,0.7,77,0.00,,,0.00,WUHU216HW,2013-02-04 22:23:00,
2013-02-04 17:28:00,22.7,16.6,29.61,East,90,0.7,0.7,77,0.00,,,0.00,WUHU216HW,2013-02-04 22:28:00,
2013-02-04 17:33:00,22.7,16.8,29.61,East,90,0.0,1.1,78,0.00,,,0.00,WUHU216HW,2013-02-04 22:33:00,
2013-02-04 17:38:00,22.5,16.7,29.61,East,90,0.0,1.1,78,0.00,,,0.00,WUHU216HW,2013-02-04 22:38:00,
2013-02-04 17:43:00,22.3,16.5,29.61,East,90,0.4,0.4,78,0.00,,,0.00,WUHU216HW,2013-02-04 22:43:00,
2013-02-04 17:48:00,22.1,16.3,29.61,East,90,0.0,0.7,78,0.00,,,0.00,WUHU216HW,2013-02-04 22:48:00,
2013-02-04 17:53:00,22.1,16.3,29.62,ESE,113,0.2,0.7,78,0.00,,,0.00,WUHU216HW,2013-02-04 22:53:00,
2013-02-04 17:58:00,22.1,16.3,29.61,ESE,113,0.0,0.4,78,0.00,,,0.00,WUHU216HW,2013-02-04 22:58:00,
2013-02-04 18:03:00,22.1,16.3,29.61,ESE,113,0.0,0.4,78,0.00,,,0.00,WUHU216HW,2013-02-04 23:03:00,
2013-02-04 18:08:00,22.0,16.1,29.61,ESE,113,0.0,0.0,78,0.00,,,0.00,WUHU216HW,2013-02-04 23:08:00,
2013-02-04 18:13:00,22.0,16.5,29.61,ESE,113,0.0,0.4,79,0.00,,,0.00,WUHU216HW,2013-02-04 23:13:00,
2013-02-04 18:18:00,22.0,16.5,29.61,East,90,0.4,0.4,79,0.00,,,0.00,WUHU216HW,2013-02-04 23:18:00,
2013-02-04 18:23:00,21.8,16.3,29.62,East,90,0.9,1.3,79,0.00,,,0.00,WUHU216HW,2013-02-04 23:23:00,
2013-02-04 18:28:00,21.6,16.1,29.62,East,90,0.0,1.3,79,0.00,,,0.00,WUHU216HW,2013-02-04 23:28:00,
2013-02-04 18:33:00,21.6,16.4,29.61,East,90,0.0,0.9,80,0.00,,,0.00,WUHU216HW,2013-02-04 23:33:00,
2013-02-04 18:38:00,21.4,16.2,29.61,ENE,68,1.8,2.5,80,0.00,,,0.00,WUHU216HW,2013-02-04 23:38:00,
2013-02-04 18:43:00,21.2,16.6,29.62,East,90,1.3,3.1,82,0.00,,,0.00,WUHU216HW,2013-02-04 23:43:00,
2013-02-04 18:48:00,21.2,16.6,29.62,East,90,0.2,3.1,82,0.00,,,0.00,WUHU216HW,2013-02-04 23:48:00,
2013-02-04 18:53:00,20.9,16.2,29.62,NE,45,1.8,2.0,82,0.00,,,0.00,WUHU216HW,2013-02-04 23:53:00,
2013-02-04 18:58:00,20.7,16.0,29.62,NE,45,0.4,2.0,82,0.00,,,0.00,WUHU216HW,2013-02-04 23:58:00,
2013-02-04 19:03:00,20.5,15.8,29.62,ENE,68,2.5,3.4,82,0.00,,,0.00,WUHU216HW,2013-02-05 00:03:00,
2013-02-04 19:08:00,20.3,15.7,29.62,East,90,1.1,3.4,82,0.00,,,0.00,WUHU216HW,2013-02-05 00:08:00,
2013-02-04 19:13:00,20.2,15.8,29.62,East,90,2.0,2.7,83,0.00,,,0.00,WUHU216HW,2013-02-05 00:13:00,
2013-02-04 19:18:00,20.2,15.5,29.62,ENE,68,1.6,2.7,82,0.00,,,0.00,WUHU216HW,2013-02-05 00:18:00,
2013-02-04 19:23:00,20.0,15.6,29.62,ESE,113,1.1,2.7,83,0.00,,,0.00,WUHU216HW,2013-02-05 00:23:00,
2013-02-04 19:28:00,20.0,15.3,29.62,East,90,0.7,2.9,82,0.00,,,0.00,WUHU216HW,2013-02-05 00:28:00,
2013-02-04 19:33:00,19.8,15.1,29.63,East,90,1.1,2.9,82,0.00,,,0.00,WUHU216HW,2013-02-05 00:33:00,
2013-02-04 19:38:00,19.8,15.1,29.63,ENE,68,1.1,2.2,82,0.00,,,0.00,WUHU216HW,2013-02-05 00:38:00,
2013-02-04 19:43:00,19.8,15.1,29.63,East,90,0.4,3.1,82,0.00,,,0.00,WUHU216HW,2013-02-05 00:43:00,
2013-02-04 19:48:00,19.8,15.1,29.63,East,90,1.1,3.1,82,0.00,,,0.00,WUHU216HW,2013-02-05 00:48:00,
2013-02-04 19:53:00,19.8,15.1,29.64,East,90,0.2,2.5,82,0.00,,,0.00,WUHU216HW,2013-02-05 00:53:00,
2013-02-04 19:58:00,19.8,15.1,29.64,ENE,68,0.0,2.5,82,0.00,,,0.00,WUHU216HW,2013-02-05 00:58:00,
2013-02-04 20:03:00,19.6,14.9,29.64,ENE,68,0.2,1.8,82,0.00,,,0.00,WUHU216HW,2013-02-05 01:03:00,
2013-02-04 20:08:00,19.6,14.9,29.64,ENE,68,0.2,1.8,82,0.00,,,0.00,WUHU216HW,2013-02-05 01:08:00,
2013-02-04 20:13:00,19.6,14.9,29.65,East,90,0.0,1.1,82,0.00,,,0.00,WUHU216HW,2013-02-05 01:13:00,
2013-02-04 20:18:00,19.6,14.9,29.64,NE,45,1.1,1.3,82,0.00,,,0.00,WUHU216HW,2013-02-05 01:18:00,
2013-02-04 20:23:00,19.6,15.2,29.64,ENE,68,0.4,1.6,83,0.00,,,0.00,WUHU216HW,2013-02-05 01:23:00,
2013-02-04 20:28:00,19.6,15.2,29.65,East,90,0.4,1.8,83,0.00,,,0.00,WUHU216HW,2013-02-05 01:28:00,
2013-02-04 20:33:00,19.6,15.2,29.65,East,90,0.4,1.8,83,0.00,,,0.00,WUHU216HW,2013-02-05 01:33:00,
2013-02-04 20:38:00,19.4,15.0,29.65,East,90,0.4,1.8,83,0.00,,,0.00,WUHU216HW,2013-02-05 01:38:00,
2013-02-04 20:43:00,19.4,15.0,29.65,East,90,0.9,1.1,83,0.00,,,0.00,WUHU216HW,2013-02-05 01:43:00,
2013-02-04 20:48:00,19.4,14.8,29.65,East,90,0.2,0.9,82,0.00,,,0.00,WUHU216HW,2013-02-05 01:48:00,
2013-02-04 20:53:00,19.4,14.8,29.65,East,90,1.1,1.1,82,0.00,,,0.00,WUHU216HW,2013-02-05 01:53:00,
2013-02-04 20:58:00,19.4,14.8,29.65,East,90,0.7,1.3,82,0.00,,,0.00,WUHU216HW,2013-02-05 01:58:00,
2013-02-04 21:03:00,19.3,14.6,29.65,East,90,0.9,1.3,82,0.00,,,0.00,WUHU216HW,2013-02-05 02:03:00,
2013-02-04 21:08:00,19.3,14.6,29.65,East,90,0.0,1.3,82,0.00,,,0.00,WUHU216HW,2013-02-05 02:08:00,
2013-02-04 21:13:00,19.1,14.7,29.65,East,90,0.4,1.1,83,0.00,,,0.00,WUHU216HW,2013-02-05 02:13:00,
2013-02-04 21:18:00,19.1,14.7,29.66,East,90,0.4,1.1,83,0.00,,,0.00,WUHU216HW,2013-02-05 02:18:00,
2013-02-04 21:23:00,19.1,14.7,29.66,East,90,0.2,0.9,83,0.00,,,0.00,WUHU216HW,2013-02-05 02:23:00,
2013-02-04 21:28:00,19.1,14.7,29.66,East,90,0.4,0.9,83,0.00,,,0.00,WUHU216HW,2013-02-05 02:28:00,
2013-02-04 21:33:00,19.1,14.7,29.66,East,90,0.0,0.7,83,0.00,,,0.00,WUHU216HW,2013-02-05 02:33:00,
2013-02-04 21:38:00,19.1,14.7,29.66,East,90,0.0,0.4,83,0.00,,,0.00,WUHU216HW,2013-02-05 02:38:00,
2013-02-04 21:43:00,19.1,14.7,29.66,East,90,0.0,0.0,83,0.00,,,0.00,WUHU216HW,2013-02-05 02:43:00,
2013-02-04 21:48:00,19.1,14.7,29.66,East,90,0.0,0.0,83,0.00,,,0.00,WUHU216HW,2013-02-05 02:48:00,
2013-02-04 21:53:00,19.1,14.7,29.66,East,90,0.0,0.0,83,0.00,,,0.00,WUHU216HW,2013-02-05 02:53:00,
2013-02-04 21:58:00,19.1,14.7,29.66,East,90,0.0,0.0,83,0.00,,,0.00,WUHU216HW,2013-02-05 02:58:00,
2013-02-04 22:03:00,19.1,14.7,29.65,East,90,0.0,0.2,83,0.00,,,0.00,WUHU216HW,2013-02-05 03:03:00,
2013-02-04 22:08:00,19.1,14.7,29.65,East,90,0.0,0.4,83,0.00,,,0.00,WUHU216HW,2013-02-05 03:08:00,
2013-02-04 22:13:00,19.1,14.7,29.65,East,90,0.2,0.4,83,0.00,,,0.00,WUHU216HW,2013-02-05 03:13:00,
2013-02-04 22:18:00,19.1,14.7,29.65,ESE,113,0.0,0.4,83,0.00,,,0.00,WUHU216HW,2013-02-05 03:18:00,
2013-02-04 22:23:00,19.1,14.7,29.65,ESE,113,0.0,0.2,83,0.00,,,0.00,WUHU216HW,2013-02-05 03:23:00,
2013-02-04 22:28:00,19.1,14.7,29.65,ESE,113,0.0,0.0,83,0.00,,,0.00,WUHU216HW,2013-02-05 03:28:00,
2013-02-04 22:33:00,19.1,14.7,29.65,ESE,113,0.0,0.4,83,0.00,,,0.00,WUHU216HW,2013-02-05 03:33:00,
2013-02-04 22:38:00,19.1,14.7,29.65,ESE,113,0.0,0.4,83,0.00,,,0.00,WUHU216HW,2013-02-05 03:38:00,
2013-02-04 22:43:00,18.9,14.5,29.64,East,90,0.0,0.4,83,0.00,,,0.00,WUHU216HW,2013-02-05 03:43:00,
2013-02-04 22:48:00,19.1,14.7,29.64,East,90,0.4,0.4,83,0.00,,,0.00,WUHU216HW,2013-02-05 03:48:00,
2013-02-04 22:53:00,19.1,14.7,29.64,East,90,0.2,0.4,83,0.00,,,0.00,WUHU216HW,2013-02-05 03:53:00,
2013-02-04 22:58:00,19.1,14.7,29.64,East,90,0.2,0.4,83,0.00,,,0.00,WUHU216HW,2013-02-05 03:58:00,
2013-02-04 23:03:00,18.9,14.5,29.64,East,90,0.7,0.9,83,0.00,,,0.00,WUHU216HW,2013-02-05 04:03:00,
2013-02-04 23:08:00,18.9,14.5,29.64,ESE,113,0.0,0.9,83,0.00,,,0.00,WUHU216HW,2013-02-05 04:08:00,
2013-02-04 23:13:00,18.9,14.5,29.64,NE,45,0.4,0.7,83,0.00,,,0.00,WUHU216HW,2013-02-05 04:13:00,
2013-02-04 23:18:00,18.7,14.3,29.64,ENE,68,0.4,1.3,83,0.00,,,0.00,WUHU216HW,2013-02-05 04:18:00,
2013-02-04 23:23:00,18.7,14.3,29.65,ENE,68,0.0,1.3,83,0.00,,,0.00,WUHU216HW,2013-02-05 04:23:00,
2013-02-04 23:28:00,18.7,14.3,29.65,East,90,0.4,0.4,83,0.00,,,0.00,WUHU216HW,2013-02-05 04:28:00,
2013-02-04 23:33:00,18.7,14.3,29.65,East,90,0.4,0.4,83,0.00,,,0.00,WUHU216HW,2013-02-05 04:33:00,
2013-02-04 23:38:00,18.7,14.3,29.65,East,90,0.0,0.4,83,0.00,,,0.00,WUHU216HW,2013-02-05 04:38:00,
2013-02-04 23:43:00,18.7,14.3,29.66,East,90,0.0,0.4,83,0.00,,,0.00,WUHU216HW,2013-02-05 04:43:00,
2013-02-04 23:48:00,18.7,14.3,29.66,East,90,0.0,0.2,83,0.00,,,0.00,WUHU216HW,2013-02-05 04:48:00,
2013-02-04 23:53:00,18.7,14.3,29.66,ENE,68,0.0,0.2,83,0.00,,,0.00,WUHU216HW,2013-02-05 04:53:00,
2013-02-04 23:58:00,18.7,14.3,29.67,ENE,68,0.0,0.2,83,0.00,,,0.00,WUHU216HW,2013-02-05 04:58:00,